Regional Weather Roundup
Issued by NWS

Home | Current Version | Previous Version | Graphics & Text | Print | Product List | Glossary On
Versions: 1 2 3 4 5 6 7 8 9 10 11 12 13 14 15 16 17 18 19 20 21 22 23 24 25 26 27 28 29 30 31 32 33 34 35 36 37 38 39 40 41 42 43 44 45 46 47 48 49 50
000
ASUS45 KPSR 271410
RWRAZ

ARIZONA REGIONAL HOURLY WEATHER ROUNDUP
NATIONAL WEATHER SERVICE PHOENIX AZ
700 AM MST WED AUG 27 2014

NOTE: FAIR INDICATES FEW OR NO CLOUDS BELOW 12,000 FEET WITH NO
SIGNIFICANT WEATHER AND/OR OBSTRUCTIONS TO VISIBILITY.

AZZ001>003-036-271500-
NORTHWEST ARIZONA

CITY           SKY/WX    TMP DP  RH WIND       PRES   REMARKS
BULLHEAD CITY  CLEAR     81  63  54 CALM      29.98R
KINGMAN        SUNNY     69  59  70 SE13      30.14R
$$

AZZ004>008-015-016-018-271500-
NORTH CENTRAL ARIZONA

CITY           SKY/WX    TMP DP  RH WIND       PRES   REMARKS
GRAND CANYON   MOSUNNY   50  48  93 SE3       30.36R
WILLIAMS       PTSUNNY   52  50  93 SE6       30.43R
PRESCOTT       FOG       57  55  93 W3        30.28R VSB 1/4
FLAGSTAFF      FOG       52  50  93 NE6       30.41R VSB 1
PAYSON         CLOUDY    61  55  82 NE7       30.31R
PAGE           SUNNY     62  50  64 CALM      30.26R
$$

AZZ009>014-017-271500-
NORTHEAST ARIZONA

CITY           SKY/WX    TMP DP  RH WIND       PRES   REMARKS
WINSLOW        LGT RAIN  58  57  97 CALM      30.33R
SAINT JOHNS    PTSUNNY   55  54  96 NW5       30.34R
WINDOW ROCK    PTSUNNY   51  49  92 CALM      30.39
SHOW LOW       PTSUNNY   54  50  87 NW6       30.41R
$$

AZZ023-271500-
GREATER PHOENIX AREA

CITY           SKY/WX    TMP DP  RH WIND       PRES   REMARKS
PHOENIX        MOSUNNY   84  59  42 E9        30.01R
BUCKEYE          N/A     81  66  61 E6        30.01R
GLENDALE       MOSUNNY   84  66  54 N5        30.03R
LUKE AFB       NOT AVBL
DEER VALLEY    PTSUNNY   81  60  48 N3        30.04R
SCOTTSDALE     MOSUNNY   83  60  45 CALM      30.05R
MESA-FALCON    MOSUNNY   81  57  44 N12       30.03R
MESA-GATEWAY   MOSUNNY   79  66  65 SE3       30.05R
CHANDLER       MOSUNNY   81  66  61 NE7       30.03R
$$

AZZ027-028-271500-
SOUTHWEST MARICOPA COUNTY AND PINAL COUNTY

CITY           SKY/WX    TMP DP  RH WIND       PRES   REMARKS
CASA GRANDE    SUNNY     79  63  57 CALM      30.05R
GILA BEND      SUNNY     82  68  61 CALM      30.00
$$

AZZ503-504-507>509-271500-
SOUTHEAST ARIZONA

CITY           SKY/WX    TMP DP  RH WIND       PRES   REMARKS
TUCSON         MOSUNNY   75  66  73 SE5       30.12R
DAVIS-MONTHAN  SUNNY     74  66  77 SE6       30.11R
RYAN FIELD       N/A     73  68  83 E3        30.11R
NOGALES        PTSUNNY   69  64  84 CALM      30.18R
SIERRA VISTA   PTSUNNY   70  63  78 CALM      30.24R
DOUGLAS        SUNNY     65  63  93 N3        30.21R
SAFFORD        SUNNY     68  64  87 CALM      30.15R
$$

AZZ020-021-025-026-031-271500-
SOUTHWEST ARIZONA

CITY           SKY/WX    TMP DP  RH WIND       PRES   REMARKS
YUMA           CLEAR     83  70  64 S5        29.94R
$$

CAZ031-033-041-043-047-048-061-271500-
SOUTHERN CALIFORNIA

CITY           SKY/WX    TMP DP  RH WIND       PRES   REMARKS
DOWNTOWN L.A.  CLEAR     67  61  81 CALM      30.02R
L.A. AIRPORT   CLEAR     69  63  81 N3        30.03R
SAN DIEGO      PTCLDY    70  61  73 N3        30.02R
BURBANK        CLEAR     67  45  45 CALM      30.04R
ONTARIO        CLEAR     70  56  61 CALM      30.04R
RIVERSIDE      CLEAR     67  59  75 CALM      30.05R
PALM SPRINGS   CLEAR     80  54  40 CALM      29.96R
EL CENTRO NAS  PTCLDY    80  48  32 SW3       29.92R
IMPERIAL       CLEAR     80  52  37 W6        29.91R
BLYTHE         CLEAR     80  57  45 N5        29.94R
NEEDLES        CLEAR     81  62  52 NW6       29.97R
$$

NVZ020-UTZ003-271500-
SOUTHERN NEVADA-UTAH

CITY           SKY/WX    TMP DP  RH WIND       PRES   REMARKS
LAS VEGAS      CLEAR     75  46  35 CALM      30.05R
SALT LAKE CITY PTSUNNY   60  56  86 SE5       30.21R
$$

NMZ009-TXZ055-271500-
NEW MEXICO-WEST TEXAS

CITY           SKY/WX    TMP DP  RH WIND       PRES   REMARKS
ALBUQUERQUE    MOSUNNY   62  57  83 W3        30.31R
EL PASO        PTSUNNY   70  65  84 N12       30.19R
$$


........................KEY........................
SKY/WX - SKY CONDITION/WEATHER
TMP    - TEMPERATURE IN FAHRENHEIT
DP     - DEW POINT IN FAHRENHEIT
RH     - RELATIVE HUMIDITY IN PERCENT
WIND   - DIRECTION AND SPEED IN MILES PER HOUR (MPH)
VRB    - VARIABLE WIND DIRECTION
PRES   - MEAN SEA LEVEL PRESSURE IN INCHES OF MERCURY
         F - FALLING PRESSURE   R - RISING PRESSURE
         S - STEADY PRESSURE
VSB    - VISIBILITY IN MILES
HX     - HEAT INDEX IN FAHRENHEIT
WCI    - WIND CHILL INDEX IN FAHRENHEIT
TC     - TEMPERATURE IN CELSIUS WHICH IS ALSO KNOWN AS
         TEMPERATURE IN CENTIGRADE
AFB    - AIR FORCE BASE
         LUKE AFB IS LUKE AIR FORCE BASE
         DAVIS-MONTHAN IS DAVIS-MONTHAN AIR FORCE BASE
NAS    - NAVAL AIR STATION
         EL CENTRO NAS IS EL CENTRO NAVAL AIR STATION
N/A    - NOT AVAILABLE



USA.gov is the U.S. government's official web portal to all federal, state and local government web resources and services.